Change the Weather History Date:

Saturday, April 5, 2014

  Actual Average Record
Temperature  
Mean Temperature 58 °F -  
Max Temperature 62 °F 67 °F - ()
Min Temperature 55 °F 43 °F - ()
Degree Days  
Heating Degree Days 6    
Growing Degree Days 8 (Base 50)    
Moisture  
Dew Point 57 °F    
Average Humidity 92    
Maximum Humidity 100    
Minimum Humidity 75    
Precipitation  
Precipitation 0.12 in 0.07 in - ()
Sea Level Pressure  
Sea Level Pressure 30.12 in    
Wind  
Wind Speed 3 mph ()    
Max Wind Speed 14 mph    
Max Gust Speed -    
Visibility 4.9 miles    
Events Rain    
T = Trace of Precipitation, MM = Missing Value Source: Averaged Metar Reports

Daily Weather History Graph

Daily Weather History Graph

Search for Another Location

Airport or City:

Trip Planner

Search our weather history database for the weather conditions in past years. The results will help you decide how hot, cold, wet, or windy it might be!

Date:

Astronomy

Apr. 05, 2014 Rise Set
Actual Time 7:18 AM AEDT 6:52 PM AEDT
Civil Twilight 6:53 AM AEDT 7:18 PM AEDT
Nautical Twilight 6:23 AM AEDT 7:47 PM AEDT
Astronomical Twilight 5:54 AM AEDT 8:16 PM AEDT
Moon 12:23 PM AEDT (4/5) 10:50 PM AEDT (4/5)
Length of Visible Light 12h 24m
Length of Day
11h 33m
Waxing Crescent, 28% of the Moon is Illuminated
Apr 5
Waxing Crescent
Apr 7
First Quarter
Apr 15
Full
Apr 22
Last Quarter
Apr 29
New

Hourly Weather History & Observations

Time (AEDT) Temp. Dew Point Humidity Pressure Visibility Wind Dir Wind Speed Gust Speed Precip Events Conditions
12:00 AM 58 °F 58 °F 100% 30.10 in - Calm Calm - -   Overcast
12:00 AM 59.0 °F 57.2 °F 94% 30.09 in 6.2 mi Calm Calm - N/A   Overcast
12:30 AM 59.0 °F 57.2 °F 94% 30.09 in 6.2 mi Calm Calm - N/A   Overcast
1:00 AM 59.0 °F 57.2 °F 94% 30.09 in 6.2 mi Calm Calm - N/A   Light Drizzle
1:30 AM 59.0 °F 57.2 °F 94% 30.09 in 6.2 mi Calm Calm - N/A Rain Light Rain
2:00 AM 58 °F 58 °F 98% 30.08 in - Calm Calm - -  
2:00 AM 57.2 °F 57.2 °F 100% 30.09 in 6.2 mi Calm Calm - N/A   Light Drizzle
2:30 AM 59.0 °F 57.2 °F 94% 30.09 in 6.2 mi Calm Calm - N/A   Overcast
3:00 AM 58 °F 58 °F 99% 30.08 in - Calm Calm - -   Overcast
3:00 AM 59.0 °F 57.2 °F 94% 30.09 in 6.2 mi Calm Calm - N/A Rain Light Rain Showers
3:20 AM 59.0 °F 57.2 °F 94% 30.09 in 3.7 mi Calm Calm - N/A   Heavy Drizzle
3:30 AM 57.2 °F 57.2 °F 100% 30.09 in 3.1 mi Calm Calm - N/A   Heavy Drizzle
4:00 AM 57.2 °F 57.2 °F 100% 30.06 in - SSW 6.9 mph - N/A Rain Rain
4:16 AM 57.2 °F 57.2 °F 100% 30.06 in 5.0 mi SSW 4.6 mph - N/A Rain Rain
4:30 AM 57.2 °F 57.2 °F 100% 30.06 in 4.3 mi SSW 4.6 mph - N/A   Drizzle
4:31 AM 57.2 °F 57.2 °F 100% 30.06 in 3.7 mi SSW 4.6 mph - N/A   Drizzle
5:00 AM 57 °F 56 °F 97% 30.07 in - South 3.5 mph - -  
5:00 AM 57.2 °F 57.2 °F 100% 30.06 in 3.1 mi South 3.5 mph - N/A   Drizzle
5:01 AM 57.2 °F 57.2 °F 100% 30.06 in 3.7 mi South 3.5 mph - N/A   Drizzle
5:16 AM 57.2 °F 57.2 °F 100% 30.09 in 5.6 mi SSW 4.6 mph - N/A   Drizzle
5:24 AM 57.2 °F 57.2 °F 100% 30.09 in 6.2 mi SSW 4.6 mph - N/A   Drizzle
5:30 AM 57.2 °F 57.2 °F 100% 30.09 in 5.6 mi SSW 5.8 mph - N/A   Drizzle
6:00 AM 57 °F 57 °F 98% 30.09 in 3 mi West 4.6 mph - -   Overcast
6:00 AM 57.2 °F 57.2 °F 100% 30.09 in 2.5 mi West 4.6 mph - N/A Rain Rain
6:30 AM 57.2 °F 57.2 °F 100% 30.09 in 1.9 mi WSW 5.8 mph - N/A Rain Light Rain
7:00 AM 57.2 °F 57.2 °F 100% 30.12 in 2.5 mi WSW 4.6 mph - N/A Rain Light Rain
7:30 AM 57.2 °F 57.2 °F 100% 30.12 in 3.1 mi South 3.5 mph - N/A Rain Light Rain
8:00 AM 57 °F 56 °F 97% 30.12 in - South 3.5 mph - -  
8:00 AM 57.2 °F 57.2 °F 100% 30.12 in 5.0 mi South 3.5 mph - N/A Rain Light Rain
8:30 AM 57.2 °F 57.2 °F 100% 30.12 in 5.0 mi SSW 4.6 mph - N/A   Mostly Cloudy
9:00 AM 58 °F 58 °F 99% 30.14 in - SSW 3.5 mph - -   Overcast
9:00 AM 59.0 °F 57.2 °F 94% 30.15 in 5.0 mi SSW 3.5 mph - N/A   Mostly Cloudy
9:30 AM 59.0 °F 57.2 °F 94% 30.15 in 5.0 mi Calm Calm - N/A   Mostly Cloudy
9:47 AM 59.0 °F 57.2 °F 94% 30.15 in 2.5 mi SW 1.2 mph - N/A Rain Light Rain
10:00 AM 59.0 °F 57.2 °F 94% 30.15 in 1.2 mi West 3.5 mph - N/A Rain Rain
10:30 AM 59.0 °F 57.2 °F 94% 30.15 in 1.9 mi SW 3.5 mph - N/A Rain Light Rain
11:00 AM 60 °F 58 °F 92% 30.14 in - SSW 5.8 mph - -  
11:00 AM 59.0 °F 59.0 °F 100% 30.15 in 3.7 mi SSW 5.8 mph - N/A Rain Light Rain
11:30 AM 59.0 °F 59.0 °F 100% 30.15 in 1.9 mi SSW 10.4 mph - N/A Rain Rain
12:00 PM 60 °F 59 °F 94% 30.14 in - SSW 9.2 mph - -  
12:00 PM 60.8 °F 59.0 °F 94% 30.15 in 3.7 mi SSW 9.2 mph - N/A Rain Light Rain
12:30 PM 60.8 °F 59.0 °F 94% 30.15 in 3.1 mi South 10.4 mph - N/A   Light Drizzle
1:00 PM 60.8 °F 59.0 °F 94% 30.12 in 3.1 mi South 10.4 mph - N/A Rain Rain
1:30 PM 60.8 °F 59.0 °F 94% 30.12 in 4.3 mi South 11.5 mph - N/A   Light Drizzle
2:00 PM 62 °F 58 °F 84% 30.12 in - South 8.1 mph - -  
2:00 PM 62.6 °F 59.0 °F 88% 30.12 in 5.6 mi South 8.1 mph - N/A   Light Drizzle
2:19 PM 60.8 °F 57.2 °F 88% 30.12 in 5.6 mi South 12.7 mph - N/A   Mostly Cloudy
2:30 PM 62.6 °F 57.2 °F 82% 30.12 in 5.6 mi South 13.8 mph - N/A   Mostly Cloudy
3:00 PM 62 °F 56 °F 77% 30.12 in - South 10.4 mph - -   Overcast
3:00 PM 62.6 °F 57.2 °F 82% 30.12 in 6.2 mi South 10.4 mph - N/A   Mostly Cloudy
3:30 PM 62.6 °F 55.4 °F 77% 30.12 in 6.2 mi South 11.5 mph - N/A   Mostly Cloudy
4:00 PM 62.6 °F 57.2 °F 82% 30.12 in 6.2 mi South 11.5 mph - N/A   Mostly Cloudy
4:30 PM 62.6 °F 55.4 °F 77% 30.12 in 6.2 mi South 12.7 mph - N/A   Mostly Cloudy
5:00 PM 62 °F 56 °F 75% 30.11 in - SSE 10.4 mph - -  
5:00 PM 62.6 °F 55.4 °F 77% 30.12 in 6.2 mi SSE 10.4 mph - N/A   Mostly Cloudy
5:30 PM 62.6 °F 55.4 °F 77% 30.12 in 6.2 mi SSE 10.4 mph - N/A   Mostly Cloudy
6:00 PM 62 °F 56 °F 75% 30.12 in - SSE 6.9 mph - -   Overcast
6:00 PM 62.6 °F 55.4 °F 77% 30.12 in 6.2 mi SSE 6.9 mph - N/A   Mostly Cloudy
6:30 PM 60.8 °F 55.4 °F 82% 30.12 in 6.2 mi SSE 5.8 mph - N/A   Overcast
7:00 PM 60.8 °F 55.4 °F 82% 30.12 in 6.2 mi South 5.8 mph - N/A   Overcast
7:30 PM 59.0 °F 55.4 °F 88% 30.15 in 6.2 mi South 10.4 mph - N/A   Drizzle
8:00 PM 59 °F 54 °F 79% 30.14 in - SSE 8.1 mph - -  
8:00 PM 59.0 °F 53.6 °F 82% 30.15 in 6.2 mi SSE 8.1 mph - N/A Rain Light Rain Showers
8:30 PM 59.0 °F 55.4 °F 88% 30.15 in 6.2 mi SE 4.6 mph - N/A Rain Light Rain Showers
9:00 PM 58 °F 56 °F 89% 30.17 in - SE 1.2 mph - -  
9:00 PM 59.0 °F 55.4 °F 88% 30.18 in 6.2 mi SE 1.2 mph - N/A   Overcast
9:30 PM 59.0 °F 55.4 °F 88% 30.18 in 6.2 mi Calm Calm - N/A Rain Light Rain Showers
10:00 PM 57.2 °F 55.4 °F 94% 30.18 in 6.2 mi Calm Calm - N/A   Overcast
10:30 PM 57.2 °F 55.4 °F 94% 30.18 in 6.2 mi Calm Calm - N/A   Overcast
11:00 PM 55 °F 53 °F 92% 30.17 in - Calm Calm - -  
11:00 PM 55.4 °F 53.6 °F 94% 30.18 in 6.2 mi Calm Calm - N/A   Mostly Cloudy
11:30 PM 55.4 °F 55.4 °F 100% 30.18 in 6.2 mi East 4.6 mph - N/A   Overcast